Time,TemperatureF,DewpointF,PressureIn,WindDirection,WindDirectionDegrees,WindSpeedMPH,WindSpeedGustMPH,Humidity,HourlyPrecipIn,Conditions,Clouds,dailyrainin,SoftwareType,DateUTC
2013-12-12 00:00:00,35.4,30.1,30.61,NNE,15,5.0,5.0,81,0.00,,,0.00,Wunderground v.1.15,2013-12-12 06:00:00,
2013-12-12 00:10:00,35.1,30.2,30.61,NW,321,4.0,4.0,82,0.00,,,0.00,Wunderground v.1.15,2013-12-12 06:10:00,
2013-12-12 00:15:00,34.9,30.0,30.61,NNE,26,3.0,4.0,82,0.00,,,0.00,Wunderground v.1.15,2013-12-12 06:15:00,
2013-12-12 00:20:00,34.7,29.8,30.61,NNE,20,3.0,3.0,82,0.00,,,0.00,Wunderground v.1.15,2013-12-12 06:20:00,
2013-12-12 00:25:00,34.5,29.9,30.61,NW,321,4.0,4.0,83,0.00,,,0.00,Wunderground v.1.15,2013-12-12 06:25:00,
2013-12-12 00:35:00,34.2,29.6,30.61,North,356,3.0,5.0,83,0.00,,,0.00,Wunderground v.1.15,2013-12-12 06:35:00,
2013-12-12 00:45:00,33.6,29.3,30.61,NNE,13,2.0,3.0,84,0.00,,,0.00,Wunderground v.1.15,2013-12-12 06:45:00,
2013-12-12 00:50:00,33.5,29.5,30.60,North,6,2.0,4.0,85,0.00,,,0.00,Wunderground v.1.15,2013-12-12 06:50:00,
2013-12-12 00:55:00,33.3,29.3,30.60,NNW,347,3.0,4.0,85,0.00,,,0.00,Wunderground v.1.15,2013-12-12 06:55:00,
2013-12-12 01:05:00,33.0,29.3,30.61,NNE,15,4.0,5.0,86,0.00,,,0.00,Wunderground v.1.15,2013-12-12 07:05:00,
2013-12-12 01:10:00,33.0,29.3,30.60,NNW,340,4.0,4.0,86,0.00,,,0.00,Wunderground v.1.15,2013-12-12 07:10:00,
2013-12-12 01:20:00,32.8,28.8,30.59,NNW,335,4.0,4.0,85,0.00,,,0.00,Wunderground v.1.15,2013-12-12 07:20:00,
2013-12-12 01:25:00,32.8,28.8,30.59,North,8,5.0,5.0,85,0.00,,,0.00,Wunderground v.1.15,2013-12-12 07:25:00,
2013-12-12 01:30:00,32.8,28.8,30.60,NNW,342,5.0,5.0,85,0.00,,,0.00,Wunderground v.1.15,2013-12-12 07:30:00,
2013-12-12 01:35:00,32.7,28.7,30.60,NNW,332,5.0,5.0,85,0.00,,,0.00,Wunderground v.1.15,2013-12-12 07:35:00,
2013-12-12 01:45:00,32.3,28.6,30.60,North,358,4.0,5.0,86,0.00,,,0.00,Wunderground v.1.15,2013-12-12 07:45:00,
2013-12-12 01:50:00,32.1,28.4,30.60,NNE,16,4.0,4.0,86,0.00,,,0.00,Wunderground v.1.15,2013-12-12 07:50:00,
2013-12-12 01:55:00,32.0,28.3,30.60,NNW,327,3.0,4.0,86,0.00,,,0.00,Wunderground v.1.15,2013-12-12 07:55:00,
2013-12-12 02:00:00,32.0,28.3,30.60,North,5,4.0,5.0,86,0.00,,,0.00,Wunderground v.1.15,2013-12-12 08:00:00,
2013-12-12 02:05:00,31.9,28.2,30.60,NNW,346,3.0,5.0,86,0.00,,,0.00,Wunderground v.1.15,2013-12-12 08:05:00,
2013-12-12 02:10:00,31.7,28.0,30.60,NNW,343,2.0,4.0,86,0.00,,,0.00,Wunderground v.1.15,2013-12-12 08:10:00,
2013-12-12 02:15:00,31.7,28.0,30.60,NNW,337,3.0,4.0,86,0.00,,,0.00,Wunderground v.1.15,2013-12-12 08:15:00,
2013-12-12 02:25:00,31.6,27.9,30.59,North,1,3.0,4.0,86,0.00,,,0.00,Wunderground v.1.15,2013-12-12 08:25:00,
2013-12-12 02:30:00,31.6,27.9,30.59,North,352,3.0,3.0,86,0.00,,,0.00,Wunderground v.1.15,2013-12-12 08:30:00,
2013-12-12 02:35:00,31.5,27.8,30.59,NNW,335,3.0,3.0,86,0.00,,,0.00,Wunderground v.1.15,2013-12-12 08:35:00,
2013-12-12 02:40:00,31.5,27.8,30.60,North,349,4.0,4.0,86,0.00,,,0.00,Wunderground v.1.15,2013-12-12 08:40:00,
2013-12-12 02:50:00,31.2,27.5,30.60,North,356,4.0,4.0,86,0.00,,,0.00,Wunderground v.1.15,2013-12-12 08:50:00,
2013-12-12 03:00:00,31.1,27.7,30.59,North,352,4.0,6.0,87,0.00,,,0.00,Wunderground v.1.15,2013-12-12 09:00:00,
2013-12-12 03:05:00,31.2,27.5,30.59,North,356,5.0,6.0,86,0.00,,,0.00,Wunderground v.1.15,2013-12-12 09:05:00,
2013-12-12 03:10:00,31.2,27.5,30.59,NNW,330,5.0,7.0,86,0.00,,,0.00,Wunderground v.1.15,2013-12-12 09:10:00,
2013-12-12 03:15:00,31.2,27.5,30.60,NW,322,5.0,7.0,86,0.00,,,0.00,Wunderground v.1.15,2013-12-12 09:15:00,
2013-12-12 03:25:00,31.0,27.3,30.60,NW,325,5.0,5.0,86,0.00,,,0.00,Wunderground v.1.15,2013-12-12 09:25:00,
2013-12-12 03:30:00,30.9,27.5,30.59,NNE,15,5.0,6.0,87,0.00,,,0.00,Wunderground v.1.15,2013-12-12 09:30:00,
2013-12-12 03:35:00,30.8,27.4,30.60,North,356,6.0,8.0,87,0.00,,,0.00,Wunderground v.1.15,2013-12-12 09:35:00,
2013-12-12 03:45:00,30.5,27.1,30.60,NNW,346,6.0,6.0,87,0.00,,,0.00,Wunderground v.1.15,2013-12-12 09:45:00,
2013-12-12 03:50:00,30.4,27.0,30.60,NNW,338,5.0,6.0,87,0.00,,,0.00,Wunderground v.1.15,2013-12-12 09:50:00,
2013-12-12 03:55:00,30.4,27.3,30.60,NNW,337,4.0,4.0,88,0.00,,,0.00,Wunderground v.1.15,2013-12-12 09:55:00,
2013-12-12 04:00:00,30.3,27.2,30.60,NNE,13,3.0,3.0,88,0.00,,,0.00,Wunderground v.1.15,2013-12-12 10:00:00,
2013-12-12 04:10:00,30.1,27.0,30.60,NNW,339,2.0,2.0,88,0.00,,,0.00,Wunderground v.1.15,2013-12-12 10:10:00,
2013-12-12 04:20:00,29.8,26.7,30.60,North,5,1.0,2.0,88,0.00,,,0.00,Wunderground v.1.15,2013-12-12 10:20:00,
2013-12-12 04:25:00,29.7,26.9,30.59,North,11,1.0,2.0,89,0.00,,,0.00,Wunderground v.1.15,2013-12-12 10:25:00,
2013-12-12 04:30:00,29.6,26.8,30.59,North,8,1.0,2.0,89,0.00,,,0.00,Wunderground v.1.15,2013-12-12 10:30:00,
2013-12-12 04:35:00,29.4,26.6,30.59,North,11,2.0,2.0,89,0.00,,,0.00,Wunderground v.1.15,2013-12-12 10:35:00,
2013-12-12 04:40:00,29.4,26.6,30.59,NNE,27,2.0,2.0,89,0.00,,,0.00,Wunderground v.1.15,2013-12-12 10:40:00,
2013-12-12 04:50:00,29.3,26.7,30.59,NNE,12,1.0,1.0,90,0.00,,,0.00,Wunderground v.1.15,2013-12-12 10:50:00,
2013-12-12 04:55:00,29.3,26.7,30.59,NE,41,1.0,2.0,90,0.00,,,0.00,Wunderground v.1.15,2013-12-12 10:55:00,
2013-12-12 05:00:00,29.3,26.7,30.59,NNE,16,0.0,2.0,90,0.00,,,0.00,Wunderground v.1.15,2013-12-12 11:00:00,
2013-12-12 05:05:00,29.2,26.6,30.59,North,7,0.0,2.0,90,0.00,,,0.00,Wunderground v.1.15,2013-12-12 11:05:00,
2013-12-12 05:10:00,29.2,26.6,30.59,NNE,13,1.0,2.0,90,0.00,,,0.00,Wunderground v.1.15,2013-12-12 11:10:00,
2013-12-12 05:15:00,29.2,26.6,30.59,North,356,2.0,3.0,90,0.00,,,0.00,Wunderground v.1.15,2013-12-12 11:15:00,
2013-12-12 05:25:00,29.1,26.5,30.59,North,1,2.0,2.0,90,0.00,,,0.00,Wunderground v.1.15,2013-12-12 11:25:00,
2013-12-12 05:30:00,29.1,26.5,30.59,North,11,2.0,2.0,90,0.00,,,0.00,Wunderground v.1.15,2013-12-12 11:30:00,
2013-12-12 05:35:00,29.0,26.4,30.59,NNE,20,2.0,2.0,90,0.00,,,0.00,Wunderground v.1.15,2013-12-12 11:35:00,
2013-12-12 05:40:00,28.9,26.3,30.59,North,4,2.0,3.0,90,0.00,,,0.00,Wunderground v.1.15,2013-12-12 11:40:00,
2013-12-12 05:45:00,28.7,26.4,30.59,North,350,1.0,3.0,91,0.00,,,0.00,Wunderground v.1.15,2013-12-12 11:45:00,
2013-12-12 05:55:00,28.7,26.4,30.60,NE,37,1.0,2.0,91,0.00,,,0.00,Wunderground v.1.15,2013-12-12 11:55:00,
2013-12-12 06:00:00,28.6,26.3,30.60,NNE,16,0.0,0.0,91,0.00,,,0.00,Wunderground v.1.15,2013-12-12 12:00:00,
2013-12-12 06:10:00,28.5,26.2,30.61,NNE,28,0.0,0.0,91,0.00,,,0.00,Wunderground v.1.15,2013-12-12 12:10:00,
2013-12-12 06:15:00,28.4,26.1,30.62,North,349,0.0,0.0,91,0.00,,,0.00,Wunderground v.1.15,2013-12-12 12:15:00,
2013-12-12 06:20:00,28.3,26.0,30.62,NNW,345,1.0,2.0,91,0.00,,,0.00,Wunderground v.1.15,2013-12-12 12:20:00,
2013-12-12 06:30:00,28.0,26.0,30.62,North,351,1.0,1.0,92,0.00,,,0.00,Wunderground v.1.15,2013-12-12 12:30:00,
2013-12-12 06:35:00,27.9,25.9,30.62,North,354,1.0,1.0,92,0.00,,,0.00,Wunderground v.1.15,2013-12-12 12:35:00,
2013-12-12 06:40:00,27.8,25.8,30.61,NNW,347,1.0,1.0,92,0.00,,,0.00,Wunderground v.1.15,2013-12-12 12:40:00,
2013-12-12 06:45:00,27.8,25.8,30.62,NNE,15,1.0,1.0,92,0.00,,,0.00,Wunderground v.1.15,2013-12-12 12:45:00,
2013-12-12 06:50:00,27.9,26.1,30.62,NW,325,0.0,0.0,93,0.00,,,0.00,Wunderground v.1.15,2013-12-12 12:50:00,
2013-12-12 07:00:00,28.1,26.1,30.61,NNE,16,1.0,2.0,92,0.00,,,0.00,Wunderground v.1.15,2013-12-12 13:00:00,
2013-12-12 07:05:00,28.1,26.1,30.61,North,359,1.0,2.0,92,0.00,,,0.00,Wunderground v.1.15,2013-12-12 13:05:00,
2013-12-12 07:10:00,28.1,26.1,30.62,North,6,1.0,2.0,92,0.00,,,0.00,Wunderground v.1.15,2013-12-12 13:10:00,
2013-12-12 07:15:00,28.2,26.2,30.61,NNW,345,1.0,2.0,92,0.00,,,0.00,Wunderground v.1.15,2013-12-12 13:15:00,
2013-12-12 07:20:00,28.3,26.3,30.61,North,8,1.0,2.0,92,0.00,,,0.00,Wunderground v.1.15,2013-12-12 13:20:00,
2013-12-12 07:25:00,28.5,26.2,30.61,North,5,1.0,2.0,91,0.00,,,0.00,Wunderground v.1.15,2013-12-12 13:25:00,
2013-12-12 07:35:00,28.6,26.3,30.62,North,11,0.0,2.0,91,0.00,,,0.00,Wunderground v.1.15,2013-12-12 13:35:00,
2013-12-12 07:40:00,28.6,26.3,30.62,NNE,18,1.0,2.0,91,0.00,,,0.00,Wunderground v.1.15,2013-12-12 13:40:00,
2013-12-12 07:45:00,28.7,26.4,30.62,North,3,1.0,2.0,91,0.00,,,0.00,Wunderground v.1.15,2013-12-12 13:45:00,
2013-12-12 07:55:00,28.6,26.3,30.63,North,5,3.0,3.0,91,0.00,,,0.00,Wunderground v.1.15,2013-12-12 13:55:00,
2013-12-12 08:00:00,28.7,26.4,30.63,NNE,16,3.0,3.0,91,0.00,,,0.00,Wunderground v.1.15,2013-12-12 14:00:00,
2013-12-12 08:10:00,28.6,26.3,30.63,NNW,335,3.0,3.0,91,0.00,,,0.00,Wunderground v.1.15,2013-12-12 14:10:00,
2013-12-12 08:15:00,28.7,26.4,30.63,NNE,19,3.0,3.0,91,0.00,,,0.00,Wunderground v.1.15,2013-12-12 14:15:00,
2013-12-12 08:20:00,28.9,26.6,30.63,North,353,2.0,2.0,91,0.00,,,0.00,Wunderground v.1.15,2013-12-12 14:20:00,
2013-12-12 08:30:00,29.3,26.7,30.62,North,356,2.0,2.0,90,0.00,,,0.00,Wunderground v.1.15,2013-12-12 14:30:00,
2013-12-12 08:35:00,29.5,26.9,30.62,NNE,26,2.0,3.0,90,0.00,,,0.00,Wunderground v.1.15,2013-12-12 14:35:00,
2013-12-12 08:50:00,30.2,27.3,30.62,North,3,3.0,3.0,89,0.00,,,0.00,Wunderground v.1.15,2013-12-12 14:50:00,
2013-12-12 08:55:00,30.4,27.3,30.63,NNW,339,3.0,4.0,88,0.00,,,0.00,Wunderground v.1.15,2013-12-12 14:55:00,
2013-12-12 09:00:00,30.7,27.3,30.63,North,11,4.0,4.0,87,0.00,,,0.00,Wunderground v.1.15,2013-12-12 15:00:00,
2013-12-12 09:05:00,31.1,27.4,30.63,North,352,5.0,5.0,86,0.00,,,0.00,Wunderground v.1.15,2013-12-12 15:05:00,
2013-12-12 09:20:00,31.9,27.9,30.63,NNW,332,5.0,5.0,85,0.00,,,0.00,Wunderground v.1.15,2013-12-12 15:20:00,
2013-12-12 09:30:00,32.8,28.5,30.64,North,351,4.0,5.0,84,0.00,,,0.00,Wunderground v.1.15,2013-12-12 15:30:00,
2013-12-12 09:35:00,33.4,29.1,30.64,North,351,4.0,5.0,84,0.00,,,0.00,Wunderground v.1.15,2013-12-12 15:35:00,
2013-12-12 09:40:00,33.8,29.2,30.64,North,1,4.0,4.0,83,0.00,,,0.00,Wunderground v.1.15,2013-12-12 15:40:00,
2013-12-12 09:45:00,34.4,29.5,30.64,NNW,345,4.0,4.0,82,0.00,,,0.00,Wunderground v.1.15,2013-12-12 15:45:00,
2013-12-12 09:50:00,35.1,29.9,30.64,NNE,22,4.0,4.0,81,0.00,,,0.00,Wunderground v.1.15,2013-12-12 15:50:00,
2013-12-12 10:00:00,36.1,30.5,30.64,NNW,344,4.0,4.0,80,0.00,,,0.00,Wunderground v.1.15,2013-12-12 16:00:00,
2013-12-12 10:05:00,36.7,30.8,30.65,NNE,23,3.0,4.0,79,0.00,,,0.00,Wunderground v.1.15,2013-12-12 16:05:00,
2013-12-12 10:10:00,37.4,31.2,30.64,North,5,2.0,5.0,78,0.00,,,0.00,Wunderground v.1.15,2013-12-12 16:10:00,
2013-12-12 10:15:00,38.0,31.7,30.64,NNE,30,3.0,5.0,78,0.00,,,0.00,Wunderground v.1.15,2013-12-12 16:15:00,
2013-12-12 10:45:00,41.6,33.2,30.63,NNW,333,1.0,2.0,72,0.00,,,0.00,Wunderground v.1.15,2013-12-12 16:45:00,
2013-12-12 10:50:00,42.3,32.8,30.63,NE,34,2.0,4.0,69,0.00,,,0.00,Wunderground v.1.15,2013-12-12 16:50:00,
2013-12-12 10:55:00,42.3,32.8,30.63,WSW,255,2.0,4.0,69,0.00,,,0.00,Wunderground v.1.15,2013-12-12 16:55:00,
2013-12-12 11:00:00,42.7,33.2,30.62,NNW,344,1.0,2.0,69,0.00,,,0.00,Wunderground v.1.15,2013-12-12 17:00:00,
2013-12-12 11:05:00,43.5,33.6,30.62,NNE,16,2.0,4.0,68,0.00,,,0.00,Wunderground v.1.15,2013-12-12 17:05:00,
2013-12-12 11:15:00,43.6,34.1,30.61,WNW,298,3.0,3.0,69,0.00,,,0.00,Wunderground v.1.15,2013-12-12 17:15:00,
2013-12-12 11:20:00,44.0,33.7,30.60,NW,315,3.0,4.0,67,0.00,,,0.00,Wunderground v.1.15,2013-12-12 17:20:00,
2013-12-12 11:25:00,44.1,33.8,30.61,West,281,3.0,4.0,67,0.00,,,0.00,Wunderground v.1.15,2013-12-12 17:25:00,
2013-12-12 11:30:00,44.5,34.2,30.61,NNE,13,3.0,3.0,67,0.00,,,0.00,Wunderground v.1.15,2013-12-12 17:30:00,
2013-12-12 11:35:00,44.7,33.6,30.60,West,278,3.0,3.0,65,0.00,,,0.00,Wunderground v.1.15,2013-12-12 17:35:00,
2013-12-12 11:40:00,45.5,34.0,30.60,NW,322,2.0,2.0,64,0.00,,,0.00,Wunderground v.1.15,2013-12-12 17:40:00,
2013-12-12 11:50:00,46.2,34.3,30.59,NNW,348,2.0,3.0,63,0.00,,,0.00,Wunderground v.1.15,2013-12-12 17:50:00,
2013-12-12 11:55:00,46.3,33.6,30.58,NW,319,2.0,3.0,61,0.00,,,0.00,Wunderground v.1.15,2013-12-12 17:55:00,
2013-12-12 12:00:00,46.8,34.0,30.58,NNW,330,2.0,5.0,61,0.00,,,0.00,Wunderground v.1.15,2013-12-12 18:00:00,
2013-12-12 12:05:00,46.9,33.7,30.58,NE,43,2.0,5.0,60,0.00,,,0.00,Wunderground v.1.15,2013-12-12 18:05:00,
2013-12-12 12:10:00,47.9,34.7,30.58,SSE,151,2.0,2.0,60,0.00,,,0.00,Wunderground v.1.15,2013-12-12 18:10:00,
2013-12-12 12:20:00,49.1,33.6,30.57,SE,128,3.0,3.0,55,0.00,,,0.00,Wunderground v.1.15,2013-12-12 18:20:00,
2013-12-12 13:00:00,48.5,33.9,30.53,SSE,158,1.0,1.0,57,0.00,,,0.00,Wunderground v.1.15,2013-12-12 19:00:00,
2013-12-12 13:05:00,48.8,34.2,30.53,NNE,33,1.0,3.0,57,0.00,,,0.00,Wunderground v.1.15,2013-12-12 19:05:00,
2013-12-12 13:10:00,48.3,33.8,30.53,SSW,197,1.0,2.0,57,0.00,,,0.00,Wunderground v.1.15,2013-12-12 19:10:00,
2013-12-12 13:15:00,48.0,33.9,30.53,South,186,3.0,3.0,58,0.00,,,0.00,Wunderground v.1.15,2013-12-12 19:15:00,
2013-12-12 13:20:00,48.0,34.3,30.53,ESE,121,2.0,3.0,59,0.00,,,0.00,Wunderground v.1.15,2013-12-12 19:20:00,
2013-12-12 13:25:00,48.4,34.3,30.52,SSE,158,2.0,3.0,58,0.00,,,0.00,Wunderground v.1.15,2013-12-12 19:25:00,
2013-12-12 13:35:00,49.5,34.4,30.52,SE,145,3.0,4.0,56,0.00,,,0.00,Wunderground v.1.15,2013-12-12 19:35:00,
2013-12-12 13:40:00,50.0,34.5,30.51,South,187,3.0,3.0,55,0.00,,,0.00,Wunderground v.1.15,2013-12-12 19:40:00,
2013-12-12 13:45:00,50.4,34.8,30.51,WSW,240,2.0,3.0,55,0.00,,,0.00,Wunderground v.1.15,2013-12-12 19:45:00,
2013-12-12 13:50:00,50.7,34.6,30.51,NNE,22,1.0,3.0,54,0.00,,,0.00,Wunderground v.1.15,2013-12-12 19:50:00,
2013-12-12 13:55:00,50.3,34.7,30.50,NNW,347,1.0,3.0,55,0.00,,,0.00,Wunderground v.1.15,2013-12-12 19:55:00,
2013-12-12 14:10:00,49.9,34.8,30.49,NNE,18,2.0,2.0,56,0.00,,,0.00,Wunderground v.1.15,2013-12-12 20:10:00,
2013-12-12 14:15:00,49.9,35.3,30.49,NNW,327,2.0,3.0,57,0.00,,,0.00,Wunderground v.1.15,2013-12-12 20:15:00,
2013-12-12 14:20:00,49.7,35.1,30.49,NNE,30,2.0,2.0,57,0.00,,,0.00,Wunderground v.1.15,2013-12-12 20:20:00,
2013-12-12 14:25:00,49.7,35.1,30.48,NNW,341,2.0,2.0,57,0.00,,,0.00,Wunderground v.1.15,2013-12-12 20:25:00,
2013-12-12 14:30:00,49.9,34.8,30.48,North,360,2.0,3.0,56,0.00,,,0.00,Wunderground v.1.15,2013-12-12 20:30:00,
2013-12-12 14:35:00,50.0,34.9,30.48,NNE,30,2.0,3.0,56,0.00,,,0.00,Wunderground v.1.15,2013-12-12 20:35:00,
2013-12-12 14:45:00,50.5,34.9,30.48,NNW,345,2.0,3.0,55,0.00,,,0.00,Wunderground v.1.15,2013-12-12 20:45:00,
2013-12-12 14:50:00,50.8,35.2,30.48,NNE,24,2.0,3.0,55,0.00,,,0.00,Wunderground v.1.15,2013-12-12 20:50:00,
2013-12-12 14:55:00,51.0,34.9,30.47,NE,39,2.0,5.0,54,0.00,,,0.00,Wunderground v.1.15,2013-12-12 20:55:00,
2013-12-12 15:00:00,51.4,35.3,30.47,SSE,156,2.0,2.0,54,0.00,,,0.00,Wunderground v.1.15,2013-12-12 21:00:00,
2013-12-12 15:05:00,51.4,35.3,30.47,ESE,120,2.0,4.0,54,0.00,,,0.00,Wunderground v.1.15,2013-12-12 21:05:00,
2013-12-12 15:10:00,51.2,35.1,30.47,South,174,2.0,2.0,54,0.00,,,0.00,Wunderground v.1.15,2013-12-12 21:10:00,
2013-12-12 15:20:00,51.2,35.6,30.47,ESE,120,1.0,2.0,55,0.00,,,0.00,Wunderground v.1.15,2013-12-12 21:20:00,
2013-12-12 15:25:00,51.0,35.4,30.47,East,101,1.0,2.0,55,0.00,,,0.00,Wunderground v.1.15,2013-12-12 21:25:00,
2013-12-12 15:30:00,50.7,35.1,30.47,SSE,160,1.0,3.0,55,0.00,,,0.00,Wunderground v.1.15,2013-12-12 21:30:00,
2013-12-12 15:35:00,50.4,34.8,30.47,East,79,2.0,3.0,55,0.00,,,0.00,Wunderground v.1.15,2013-12-12 21:35:00,
2013-12-12 15:40:00,50.2,35.1,30.47,SE,128,2.0,4.0,56,0.00,,,0.00,Wunderground v.1.15,2013-12-12 21:40:00,
2013-12-12 15:45:00,49.9,34.8,30.47,SSW,211,2.0,6.0,56,0.00,,,0.00,Wunderground v.1.15,2013-12-12 21:45:00,
2013-12-12 15:55:00,49.1,34.5,30.47,SSE,160,4.0,6.0,57,0.00,,,0.00,Wunderground v.1.15,2013-12-12 21:55:00,
2013-12-12 16:00:00,48.9,34.8,30.47,SE,141,4.0,4.0,58,0.00,,,0.00,Wunderground v.1.15,2013-12-12 22:00:00,
2013-12-12 16:05:00,48.8,34.7,30.47,SSE,149,3.0,4.0,58,0.00,,,0.00,Wunderground v.1.15,2013-12-12 22:05:00,
2013-12-12 16:10:00,48.7,35.0,30.47,SE,131,2.0,2.0,59,0.00,,,0.00,Wunderground v.1.15,2013-12-12 22:10:00,
2013-12-12 16:15:00,48.6,34.9,30.47,ESE,102,2.0,2.0,59,0.00,,,0.00,Wunderground v.1.15,2013-12-12 22:15:00,
2013-12-12 16:25:00,48.5,35.2,30.46,SE,144,1.0,2.0,60,0.00,,,0.00,Wunderground v.1.15,2013-12-12 22:25:00,
2013-12-12 16:30:00,48.5,35.2,30.47,SE,133,0.0,2.0,60,0.00,,,0.00,Wunderground v.1.15,2013-12-12 22:30:00,
2013-12-12 16:35:00,48.3,35.0,30.47,ESE,121,0.0,2.0,60,0.00,,,0.00,Wunderground v.1.15,2013-12-12 22:35:00,
2013-12-12 16:40:00,48.1,34.9,30.46,SE,125,1.0,2.0,60,0.00,,,0.00,Wunderground v.1.15,2013-12-12 22:40:00,
2013-12-12 16:45:00,47.8,35.0,30.46,SE,129,1.0,2.0,61,0.00,,,0.00,Wunderground v.1.15,2013-12-12 22:45:00,
2013-12-12 16:50:00,47.6,35.2,30.46,SSE,148,0.0,2.0,62,0.00,,,0.00,Wunderground v.1.15,2013-12-12 22:50:00,
2013-12-12 17:00:00,47.1,35.5,30.46,ESE,110,0.0,2.0,64,0.00,,,0.00,Wunderground v.1.15,2013-12-12 23:00:00,
2013-12-12 17:05:00,46.9,35.4,30.46,ESE,117,0.0,2.0,64,0.00,,,0.00,Wunderground v.1.15,2013-12-12 23:05:00,
2013-12-12 17:10:00,46.5,35.0,30.46,ESE,117,0.0,2.0,64,0.00,,,0.00,Wunderground v.1.15,2013-12-12 23:10:00,
2013-12-12 17:15:00,46.1,35.0,30.46,ESE,117,0.0,2.0,65,0.00,,,0.00,Wunderground v.1.15,2013-12-12 23:15:00,
2013-12-12 17:20:00,45.7,35.0,30.46,East,101,0.0,2.0,66,0.00,,,0.00,Wunderground v.1.15,2013-12-12 23:20:00,
2013-12-12 17:30:00,45.1,34.8,30.45,East,94,0.0,2.0,67,0.00,,,0.00,Wunderground v.1.15,2013-12-12 23:30:00,
2013-12-12 17:35:00,44.7,34.4,30.45,NE,35,0.0,2.0,67,0.00,,,0.00,Wunderground v.1.15,2013-12-12 23:35:00,
2013-12-12 17:40:00,44.3,34.4,30.45,ESE,113,0.0,2.0,68,0.00,,,0.00,Wunderground v.1.15,2013-12-12 23:40:00,
2013-12-12 17:50:00,44.0,34.5,30.45,East,84,0.0,2.0,69,0.00,,,0.00,Wunderground v.1.15,2013-12-12 23:50:00,
2013-12-12 17:55:00,43.7,34.2,30.45,ESE,122,0.0,2.0,69,0.00,,,0.00,Wunderground v.1.15,2013-12-12 23:55:00,
2013-12-12 18:05:00,43.3,34.5,30.44,SE,129,0.0,2.0,71,0.00,,,0.00,Wunderground v.1.15,2013-12-13 00:05:00,
2013-12-12 18:10:00,43.2,34.4,30.45,East,100,1.0,1.0,71,0.00,,,0.00,Wunderground v.1.15,2013-12-13 00:10:00,
2013-12-12 18:15:00,43.2,34.4,30.45,ESE,117,1.0,2.0,71,0.00,,,0.00,Wunderground v.1.15,2013-12-13 00:15:00,
2013-12-12 18:20:00,43.2,34.8,30.45,ESE,110,1.0,2.0,72,0.00,,,0.00,Wunderground v.1.15,2013-12-13 00:20:00,
2013-12-12 18:25:00,43.2,34.8,30.45,SE,142,1.0,2.0,72,0.00,,,0.00,Wunderground v.1.15,2013-12-13 00:25:00,
2013-12-12 18:30:00,43.2,34.8,30.45,SE,131,1.0,2.0,72,0.00,,,0.00,Wunderground v.1.15,2013-12-13 00:30:00,
2013-12-12 18:40:00,43.3,34.9,30.46,SE,138,1.0,2.0,72,0.00,,,0.00,Wunderground v.1.15,2013-12-13 00:40:00,
2013-12-12 18:45:00,43.2,34.8,30.46,SSW,201,1.0,2.0,72,0.00,,,0.00,Wunderground v.1.15,2013-12-13 00:45:00,
2013-12-12 18:50:00,42.8,35.1,30.47,SSW,212,2.0,3.0,74,0.00,,,0.00,Wunderground v.1.15,2013-12-13 00:50:00,
2013-12-12 18:55:00,42.7,35.0,30.47,South,188,2.0,3.0,74,0.00,,,0.00,Wunderground v.1.15,2013-12-13 00:55:00,
2013-12-12 19:00:00,42.5,35.1,30.46,South,188,1.0,1.0,75,0.00,,,0.00,Wunderground v.1.15,2013-12-13 01:00:00,
2013-12-12 19:10:00,42.6,34.9,30.46,SSE,165,0.0,2.0,74,0.00,,,0.00,Wunderground v.1.15,2013-12-13 01:10:00,
2013-12-12 19:15:00,42.7,35.3,30.46,SSE,155,1.0,2.0,75,0.00,,,0.00,Wunderground v.1.15,2013-12-13 01:15:00,
2013-12-12 19:20:00,42.4,35.4,30.46,South,191,2.0,2.0,76,0.00,,,0.00,Wunderground v.1.15,2013-12-13 01:20:00,
2013-12-12 19:25:00,42.2,35.5,30.45,South,191,1.0,2.0,77,0.00,,,0.00,Wunderground v.1.15,2013-12-13 01:25:00,
2013-12-12 19:30:00,42.4,35.4,30.45,South,191,0.0,2.0,76,0.00,,,0.00,Wunderground v.1.15,2013-12-13 01:30:00,
2013-12-12 19:35:00,42.7,35.3,30.45,SE,146,0.0,2.0,75,0.00,,,0.00,Wunderground v.1.15,2013-12-13 01:35:00,
2013-12-12 19:55:00,43.5,35.4,30.44,SE,134,3.0,4.0,73,0.00,,,0.00,Wunderground v.1.15,2013-12-13 01:55:00,
2013-12-12 20:05:00,43.4,35.3,30.44,South,170,4.0,5.0,73,0.00,,,0.00,Wunderground v.1.15,2013-12-13 02:05:00,
2013-12-12 20:10:00,43.2,35.1,30.44,ESE,121,4.0,4.0,73,0.00,,,0.00,Wunderground v.1.15,2013-12-13 02:10:00,
2013-12-12 20:25:00,42.5,35.1,30.43,SSE,166,4.0,5.0,75,0.00,,,0.00,Wunderground v.1.15,2013-12-13 02:25:00,
2013-12-12 20:35:00,42.1,35.1,30.43,SE,128,3.0,4.0,76,0.00,,,0.00,Wunderground v.1.15,2013-12-13 02:35:00,
2013-12-12 20:40:00,41.8,34.8,30.44,SSE,153,3.0,3.0,76,0.00,,,0.00,Wunderground v.1.15,2013-12-13 02:40:00,
2013-12-12 20:45:00,41.6,34.6,30.43,SSE,160,3.0,4.0,76,0.00,,,0.00,Wunderground v.1.15,2013-12-13 02:45:00,
2013-12-12 20:50:00,41.5,34.5,30.43,SE,136,4.0,4.0,76,0.00,,,0.00,Wunderground v.1.15,2013-12-13 02:50:00,
2013-12-12 21:00:00,41.0,34.7,30.43,SE,130,4.0,6.0,78,0.00,,,0.00,Wunderground v.1.15,2013-12-13 03:00:00,
2013-12-12 21:05:00,40.9,34.6,30.43,SE,132,4.0,6.0,78,0.00,,,0.00,Wunderground v.1.15,2013-12-13 03:05:00,
2013-12-12 21:10:00,40.8,34.5,30.43,SE,135,4.0,4.0,78,0.00,,,0.00,Wunderground v.1.15,2013-12-13 03:10:00,
2013-12-12 21:15:00,40.8,34.5,30.43,SE,141,4.0,5.0,78,0.00,,,0.00,Wunderground v.1.15,2013-12-13 03:15:00,
2013-12-12 21:20:00,40.8,34.5,30.42,SSE,163,5.0,5.0,78,0.00,,,0.00,Wunderground v.1.15,2013-12-13 03:20:00,
2013-12-12 21:25:00,40.8,34.5,30.43,SE,141,4.0,5.0,78,0.00,,,0.00,Wunderground v.1.15,2013-12-13 03:25:00,
2013-12-12 21:35:00,40.8,34.5,30.43,SE,142,4.0,6.0,78,0.00,,,0.00,Wunderground v.1.15,2013-12-13 03:35:00,
2013-12-12 21:40:00,40.7,34.0,30.43,SSE,162,5.0,5.0,77,0.00,,,0.00,Wunderground v.1.15,2013-12-13 03:40:00,
2013-12-12 21:45:00,40.8,34.1,30.43,SE,141,6.0,7.0,77,0.00,,,0.00,Wunderground v.1.15,2013-12-13 03:45:00,
2013-12-12 21:50:00,40.8,34.1,30.42,SSE,163,6.0,9.0,77,0.00,,,0.00,Wunderground v.1.15,2013-12-13 03:50:00,
2013-12-12 21:55:00,40.8,34.1,30.42,SE,132,7.0,9.0,77,0.00,,,0.00,Wunderground v.1.15,2013-12-13 03:55:00,
2013-12-12 22:05:00,40.9,33.9,30.42,SSE,148,8.0,9.0,76,0.00,,,0.00,Wunderground v.1.15,2013-12-13 04:05:00,
2013-12-12 22:10:00,41.0,34.0,30.42,SSE,156,7.0,10.0,76,0.00,,,0.00,Wunderground v.1.15,2013-12-13 04:10:00,
2013-12-12 22:15:00,41.0,34.0,30.42,SE,142,7.0,10.0,76,0.00,,,0.00,Wunderground v.1.15,2013-12-13 04:15:00,
2013-12-12 22:20:00,41.0,34.0,30.42,SE,136,7.0,7.0,76,0.00,,,0.00,Wunderground v.1.15,2013-12-13 04:20:00,
2013-12-12 22:25:00,40.9,33.9,30.41,ESE,123,6.0,7.0,76,0.00,,,0.00,Wunderground v.1.15,2013-12-13 04:25:00,
2013-12-12 22:30:00,40.8,34.1,30.41,SSE,153,6.0,6.0,77,0.00,,,0.00,Wunderground v.1.15,2013-12-13 04:30:00,
2013-12-12 22:35:00,40.7,34.4,30.41,SSE,162,6.0,6.0,78,0.00,,,0.00,Wunderground v.1.15,2013-12-13 04:35:00,
2013-12-12 22:40:00,40.5,34.2,30.41,SSE,159,6.0,6.0,78,0.00,,,0.00,Wunderground v.1.15,2013-12-13 04:40:00,
2013-12-12 22:45:00,40.5,34.5,30.41,SSE,160,5.0,6.0,79,0.00,,,0.00,Wunderground v.1.15,2013-12-13 04:45:00,
2013-12-12 22:50:00,40.4,34.4,30.40,SSE,158,5.0,5.0,79,0.00,,,0.00,Wunderground v.1.15,2013-12-13 04:50:00,
2013-12-12 22:55:00,40.4,34.7,30.41,SSE,168,6.0,9.0,80,0.00,,,0.00,Wunderground v.1.15,2013-12-13 04:55:00,
2013-12-12 23:00:00,40.5,34.5,30.39,South,174,6.0,8.0,79,0.00,,,0.00,Wunderground v.1.15,2013-12-13 05:00:00,
2013-12-12 23:10:00,40.7,34.4,30.38,SE,142,7.0,7.0,78,0.00,,,0.00,Wunderground v.1.15,2013-12-13 05:10:00,
2013-12-12 23:15:00,40.8,34.5,30.38,SSE,148,7.0,7.0,78,0.00,,,0.00,Wunderground v.1.15,2013-12-13 05:15:00,
2013-12-12 23:20:00,40.8,34.5,30.37,SSE,163,6.0,6.0,78,0.00,,,0.00,Wunderground v.1.15,2013-12-13 05:20:00,
2013-12-12 23:25:00,40.7,34.0,30.36,SSE,165,6.0,6.0,77,0.00,,,0.00,Wunderground v.1.15,2013-12-13 05:25:00,
2013-12-12 23:30:00,40.8,34.1,30.37,SSE,148,6.0,10.0,77,0.00,,,0.00,Wunderground v.1.15,2013-12-13 05:30:00,
2013-12-12 23:35:00,40.8,34.1,30.37,SSE,153,7.0,10.0,77,0.00,,,0.00,Wunderground v.1.15,2013-12-13 05:35:00,
2013-12-12 23:40:00,40.8,34.1,30.37,SSW,195,7.0,8.0,77,0.00,,,0.00,Wunderground v.1.15,2013-12-13 05:40:00,
2013-12-12 23:45:00,40.7,34.0,30.36,SE,145,6.0,8.0,77,0.00,,,0.00,Wunderground v.1.15,2013-12-13 05:45:00,
2013-12-12 23:50:00,40.7,34.4,30.37,South,169,6.0,9.0,78,0.00,,,0.00,Wunderground v.1.15,2013-12-13 05:50:00,
2013-12-12 23:55:00,40.7,34.4,30.38,SSE,158,6.0,9.0,78,0.00,,,0.00,Wunderground v.1.15,2013-12-13 05:55:00,